When you browse on this site, cookies collect data to enhance your experience and personalize the content and advertising you see.
Visit our Privacy Policy to learn more. By continuing to use the site, you agree to this use of cookies and data.
  • Em Portugal
  • Lista de países
  • Para 7 dias
  • Temperatura da água
  • Mapa do tempo
  • Widgets de tempo
  • user-avatar
    Iniciar Sessão

    Previsão horária em Berat

    Hoje, 22 Fevereiro, Sábado

    Tempo Temperatura Precipitação Vento Pressão Humidade
    00:00 +6°C° 0 mm 1 m/s 749 mmHg 68%
    01:00 +6°C° 0 mm 1 m/s 749 mmHg 69%
    02:00 +6°C° 0 mm 1 m/s 749 mmHg 70%
    03:00 +6°C° 0 mm 1 m/s 749 mmHg 72%
    04:00 +5°C° 0 mm 2 m/s 749 mmHg 73%
    05:00 +5°C° 0 mm 2 m/s 749 mmHg 72%
    06:00 +4°C° 0 mm 2 m/s 750 mmHg 71%
    07:00 +4°C° 0 mm 2 m/s 750 mmHg 72%
    08:00 +6°C° 0 mm 2 m/s 751 mmHg 63%
    09:00 +7°C° 0 mm 3 m/s 751 mmHg 53%
    10:00 +9°C° 0 mm 3 m/s 751 mmHg 44%
    11:00 +9°C° 0 mm 3 m/s 751 mmHg 42%
    12:00 +10°C° 0 mm 3 m/s 752 mmHg 40%
    13:00 +11°C° 0 mm 3 m/s 752 mmHg 38%
    14:00 +10°C° 0 mm 3 m/s 752 mmHg 40%
    15:00 +10°C° 0 mm 3 m/s 752 mmHg 42%
    16:00 +10°C° 0 mm 2 m/s 752 mmHg 45%
    17:00 +9°C° 0 mm 2 m/s 753 mmHg 49%
    18:00 +8°C° 0 mm 2 m/s 753 mmHg 54%
    19:00 +7°C° 0 mm 1 m/s 753 mmHg 59%
    20:00 +7°C° 0 mm 1 m/s 754 mmHg 59%
    21:00 +7°C° 0 mm 1 m/s 754 mmHg 60%
    22:00 +6°C° 0 mm 1 m/s 754 mmHg 60%
    23:00 +6°C° 0 mm 1 m/s 754 mmHg 60%

    Amanhã, 23 Fevereiro, Domingo

    Tempo Temperatura Precipitação Vento Pressão Humidade
    00:00 +6°C° 0 mm 1 m/s 754 mmHg 60%
    01:00 +6°C° 0 mm 1 m/s 754 mmHg 60%
    02:00 +6°C° 0 mm 1 m/s 754 mmHg 59%
    03:00 +6°C° 0 mm 1 m/s 753 mmHg 57%
    04:00 +6°C° 0 mm 1 m/s 753 mmHg 56%
    05:00 +6°C° 0 mm 1 m/s 753 mmHg 56%
    06:00 +6°C° 0 mm 1 m/s 753 mmHg 56%
    07:00 +6°C° 0 mm 1 m/s 753 mmHg 56%
    08:00 +8°C° 0 mm 1 m/s 753 mmHg 51%
    09:00 +10°C° 0 mm 1 m/s 752 mmHg 45%
    10:00 +11°C° 0 mm 0 m/s 752 mmHg 40%
    11:00 +13°C° 0 mm 1 m/s 752 mmHg 40%
    12:00 +14°C° 0 mm 1 m/s 752 mmHg 39%
    13:00 +15°C° 0 mm 1 m/s 751 mmHg 39%
    14:00 +14°C° 0 mm 1 m/s 751 mmHg 43%
    15:00 +14°C° 0 mm 1 m/s 751 mmHg 48%
    16:00 +13°C° 0 mm 1 m/s 750 mmHg 52%
    17:00 +12°C° 0 mm 1 m/s 750 mmHg 56%
    18:00 +11°C° 0 mm 1 m/s 750 mmHg 59%
    19:00 +9°C° 0 mm 0 m/s 751 mmHg 63%
    20:00 +9°C° 0 mm 0 m/s 750 mmHg 61%
    21:00 +9°C° 0 mm 0 m/s 750 mmHg 60%
    22:00 +9°C° 0 mm 0 m/s 750 mmHg 58%
    23:00 +8°C° 0 mm 0 m/s 749 mmHg 57%

    Depois de amanhã, 24 Fevereiro, Segunda-feira

    Tempo Temperatura Precipitação Vento Pressão Humidade
    00:00 +8°C° 0 mm 0 m/s 749 mmHg 55%
    01:00 +8°C° 0 mm 0 m/s 749 mmHg 54%
    02:00 +8°C° 0 mm 0 m/s 749 mmHg 53%
    03:00 +8°C° 0 mm 0 m/s 748 mmHg 53%
    04:00 +8°C° 0 mm 0 m/s 747 mmHg 52%
    05:00 +8°C° 0 mm 0 m/s 747 mmHg 54%
    06:00 +8°C° 0 mm 0 m/s 747 mmHg 55%
    07:00 +8°C° 0 mm 0 m/s 748 mmHg 56%
    08:00 +11°C° 0 mm 1 m/s 748 mmHg 54%
    09:00 +12°C° 0 mm 1 m/s 748 mmHg 51%
    10:00 +14°C° 0 mm 2 m/s 748 mmHg 49%
    11:00 +15°C° 0 mm 2 m/s 747 mmHg 50%
    12:00 +15°C° 0 mm 2 m/s 747 mmHg 51%
    13:00 +16°C° 0 mm 2 m/s 747 mmHg 52%
    14:00 +16°C° 0 mm 2 m/s 747 mmHg 55%
    15:00 +16°C° 0 mm 2 m/s 747 mmHg 58%
    16:00 +15°C° 0 mm 2 m/s 747 mmHg 61%
    17:00 +14°C° 0 mm 2 m/s 747 mmHg 67%
    18:00 +13°C° 0 mm 1 m/s 747 mmHg 73%
    19:00 +11°C° 0 mm 1 m/s 747 mmHg 79%
    20:00 +11°C° 0 mm 1 m/s 747 mmHg 77%
    21:00 +11°C° 0 mm 1 m/s 748 mmHg 74%
    22:00 +11°C° 0 mm 1 m/s 748 mmHg 72%
    23:00 +11°C° 0 mm 1 m/s 748 mmHg 70%

    25 Fevereiro, Terça-feira

    Tempo Temperatura Precipitação Vento Pressão Humidade
    00:00 +10°C° 0 mm 2 m/s 747 mmHg 68%
    01:00 +10°C° 0 mm 2 m/s 747 mmHg 66%
    02:00 +10°C° 0 mm 2 m/s 747 mmHg 65%
    03:00 +10°C° 0 mm 2 m/s 746 mmHg 63%
    04:00 +10°C° 0 mm 2 m/s 746 mmHg 62%
    05:00 +11°C° 0 mm 1 m/s 746 mmHg 63%
    06:00 +11°C° 0 mm 1 m/s 746 mmHg 63%
    07:00 +11°C° 0 mm 1 m/s 746 mmHg 63%
    08:00 +13°C° 0 mm 1 m/s 746 mmHg 59%
    09:00 +15°C° 0 mm 2 m/s 746 mmHg 55%
    10:00 +17°C° 0 mm 2 m/s 746 mmHg 51%
    11:00 +18°C° 0 mm 2 m/s 746 mmHg 51%
    12:00 +18°C° 0 mm 2 m/s 745 mmHg 52%
    13:00 +19°C° 0 mm 2 m/s 745 mmHg 52%
    14:00 +18°C° 0 mm 2 m/s 744 mmHg 56%
    15:00 +17°C° 0 mm 2 m/s 744 mmHg 60%
    16:00 +17°C° 0 mm 2 m/s 743 mmHg 64%
    17:00 +15°C° 0 mm 2 m/s 743 mmHg 70%
    18:00 +14°C° 0 mm 2 m/s 743 mmHg 77%
    19:00 +12°C° 0 mm 2 m/s 743 mmHg 83%
    20:00 +12°C° 0 mm 2 m/s 743 mmHg 84%
    21:00 +12°C° 0 mm 2 m/s 743 mmHg 85%
    22:00 +10°C° 0 mm 2 m/s 743 mmHg 86%
    23:00 +10°C° 0 mm 3 m/s 742 mmHg 86%

    26 Fevereiro, Quarta-feira

    Tempo Temperatura Precipitação Vento Pressão Humidade
    00:00 +10°C° 0 mm 3 m/s 742 mmHg 86%
    01:00 +10°C° 0 mm 3 m/s 742 mmHg 85%
    02:00 +9°C° 0 mm 3 m/s 741 mmHg 85%
    03:00 +9°C° 0 mm 3 m/s 741 mmHg 86%
    04:00 +9°C° 0 mm 3 m/s 740 mmHg 86%
    05:00 +9°C° 0 mm 3 m/s 740 mmHg 86%
    06:00 +9°C° 0 mm 3 m/s 739 mmHg 85%
    07:00 +9°C° 0 mm 3 m/s 739 mmHg 85%
    08:00 +11°C° 0 mm 4 m/s 739 mmHg 79%
    09:00 +12°C° 0 mm 4 m/s 739 mmHg 72%
    10:00 +14°C° 0 mm 5 m/s 739 mmHg 66%
    11:00 +15°C° 0 mm 5 m/s 738 mmHg 65%
    12:00 +15°C° 0 mm 5 m/s 737 mmHg 63%
    13:00 +15°C° 0 mm 6 m/s 737 mmHg 62%
    14:00 +15°C° 0 mm 5 m/s 736 mmHg 64%
    15:00 +15°C° 0 mm 5 m/s 736 mmHg 65%
    16:00 +14°C° 0 mm 5 m/s 735 mmHg 67%
    17:00 +13°C° 0.1 mm 4 m/s 735 mmHg 73%
    18:00 +12°C° 0.1 mm 4 m/s 735 mmHg 80%
    19:00 +11°C° 0.1 mm 3 m/s 736 mmHg 86%
    20:00 +10°C° 0.3 mm 3 m/s 736 mmHg 87%
    21:00 +10°C° 0.3 mm 3 m/s 736 mmHg 88%
    22:00 +10°C° 0.3 mm 2 m/s 736 mmHg 89%
    23:00 +10°C° 0.3 mm 2 m/s 735 mmHg 88%

    27 Fevereiro, Quinta-feira

    Tempo Temperatura Precipitação Vento Pressão Humidade
    00:00 +9°C° 0.3 mm 2 m/s 735 mmHg 87%
    01:00 +9°C° 0.3 mm 2 m/s 734 mmHg 87%
    02:00 +9°C° 1.4 mm 3 m/s 734 mmHg 88%
    03:00 +9°C° 1.4 mm 3 m/s 733 mmHg 90%
    04:00 +8°C° 1.4 mm 4 m/s 732 mmHg 92%
    05:00 +7°C° 4.9 mm 3 m/s 732 mmHg 93%
    06:00 +6°C° 4.9 mm 2 m/s 732 mmHg 94%
    07:00 +6°C° 4.9 mm 1 m/s 732 mmHg 95%
    08:00 +6°C° 1 mm 1 m/s 732 mmHg 93%
    09:00 +5°C° 1 mm 2 m/s 732 mmHg 92%
    10:00 +6°C° 1 mm 2 m/s 732 mmHg 90%
    11:00 +6°C° 0.2 mm 2 m/s 733 mmHg 86%
    12:00 +7°C° 0.2 mm 2 m/s 733 mmHg 82%
    13:00 +8°C° 0.2 mm 2 m/s 733 mmHg 78%
    14:00 +8°C° 0.5 mm 2 m/s 733 mmHg 79%
    15:00 +7°C° 0.5 mm 3 m/s 734 mmHg 81%
    16:00 +7°C° 0.5 mm 3 m/s 734 mmHg 82%
    17:00 +7°C° 0.2 mm 3 m/s 735 mmHg 84%
    18:00 +6°C° 0.2 mm 2 m/s 735 mmHg 87%
    19:00 +6°C° 0.2 mm 2 m/s 736 mmHg 89%
    20:00 +6°C° 0.1 mm 2 m/s 737 mmHg 89%
    21:00 +6°C° 0.1 mm 2 m/s 738 mmHg 89%
    22:00 +6°C° 0.1 mm 2 m/s 739 mmHg 89%
    23:00 +5°C° 0 mm 2 m/s 739 mmHg 89%
    Mostrar mais